Location: Claflin County Park
(44.8478°N, 87.5507°W)
Time: 06:55:03
(UTC+00:00)

USA 234 - Pass Details

Date: 18 March 2026
Orbit: 1102 x 1106 km, 123.0° (Epoch: 4 January)

Event Time Altitude Azimuth Distance (km) Brightness Sun altitude
Exits shadow 03:19:25 53° 18° (NNE) 1,342 3.7 -33.9°
Drops below altitude 10° 03:25:26 10° 313° (NW) 2,970 6.3 -34.7°
Sets 03:27:58 0° 309° (NW) 3,930 7.2 -35.0°
